Time,TemperatureF,DewpointF,PressureIn,WindDirection,WindDirectionDegrees,WindSpeedMPH,WindSpeedGustMPH,Humidity,HourlyPrecipIn,Conditions,Clouds,dailyrainin,SoftwareType,DateUTC
2013-02-18 00:09:00,38.0,2.0,29.89,West,270,3.0,-999.0,22,-99.99,,,0.00,weatherlink.com 1.10,2013-02-18 07:09:00,
2013-02-18 00:25:00,36.9,2.0,29.89,NW,313,1.0,-999.0,23,-99.99,,,0.00,weatherlink.com 1.10,2013-02-18 07:25:00,
2013-02-18 00:40:00,36.6,4.0,29.90,NNW,342,1.0,-999.0,25,-99.99,,,0.00,weatherlink.com 1.10,2013-02-18 07:40:00,
2013-02-18 00:55:00,36.6,5.0,29.91,NNW,343,0.0,-999.0,26,-99.99,,,0.00,weatherlink.com 1.10,2013-02-18 07:55:00,
2013-02-18 01:10:00,36.2,5.0,29.93,NNW,337,4.0,-999.0,27,-99.99,,,0.00,weatherlink.com 1.10,2013-02-18 08:10:00,
2013-02-18 01:25:00,35.9,6.0,29.92,NW,321,0.0,-999.0,29,-99.99,,,0.00,weatherlink.com 1.10,2013-02-18 08:25:00,
2013-02-18 01:40:00,-999.0,-99.9,29.94,North,-999,-999.0,-999.0,-999,-99.99,,,0.00,weatherlink.com 1.10,2013-02-18 08:40:00,
2013-02-18 01:55:00,-999.0,-99.9,29.86,North,-999,-999.0,-999.0,-999,-99.99,,,0.00,weatherlink.com 1.10,2013-02-18 08:55:00,
2013-02-18 02:10:00,-999.0,-99.9,29.86,North,-999,-999.0,-999.0,-999,-99.99,,,0.00,weatherlink.com 1.10,2013-02-18 09:10:00,
2013-02-18 02:26:00,-999.0,-99.9,29.86,North,-999,-999.0,-999.0,-999,-99.99,,,0.00,weatherlink.com 1.10,2013-02-18 09:26:00,
2013-02-18 02:40:00,-999.0,-99.9,29.86,North,-999,-999.0,-999.0,-999,-99.99,,,0.00,weatherlink.com 1.10,2013-02-18 09:40:00,
2013-02-18 02:55:00,-999.0,-99.9,29.87,North,-999,-999.0,-999.0,-999,-99.99,,,0.00,weatherlink.com 1.10,2013-02-18 09:55:00,
2013-02-18 03:10:00,-999.0,-99.9,29.88,North,-999,-999.0,-999.0,-999,-99.99,,,0.00,weatherlink.com 1.10,2013-02-18 10:10:00,
2013-02-18 03:25:00,-999.0,-99.9,29.86,North,-999,-999.0,-999.0,-999,-99.99,,,0.00,weatherlink.com 1.10,2013-02-18 10:25:00,
2013-02-18 03:41:00,-999.0,-99.9,29.86,North,-999,-999.0,-999.0,-999,-99.99,,,0.00,weatherlink.com 1.10,2013-02-18 10:41:00,
2013-02-18 03:56:00,-999.0,-99.9,29.86,North,-999,-999.0,-999.0,-999,-99.99,,,0.00,weatherlink.com 1.10,2013-02-18 10:56:00,
2013-02-18 04:11:00,25.1,12.0,29.86,NW,321,0.0,-999.0,57,-99.99,,,0.00,weatherlink.com 1.10,2013-02-18 11:11:00,
2013-02-18 04:26:00,24.7,12.0,30.02,NW,321,0.0,-999.0,60,-99.99,,,0.00,weatherlink.com 1.10,2013-02-18 11:26:00,
2013-02-18 04:41:00,24.1,12.0,30.03,NW,321,0.0,-999.0,60,-99.99,,,0.00,weatherlink.com 1.10,2013-02-18 11:41:00,
2013-02-18 04:56:00,23.8,12.0,30.04,NW,321,0.0,-999.0,61,-99.99,,,0.00,weatherlink.com 1.10,2013-02-18 11:56:00,
2013-02-18 05:11:00,23.6,12.0,30.05,NW,321,0.0,-999.0,62,-99.99,,,0.00,weatherlink.com 1.10,2013-02-18 12:11:00,
2013-02-18 05:26:00,23.0,12.0,30.08,NW,321,0.0,-999.0,64,-99.99,,,0.00,weatherlink.com 1.10,2013-02-18 12:26:00,
2013-02-18 05:41:00,22.5,13.0,30.08,NW,321,0.0,-999.0,66,-99.99,,,0.00,weatherlink.com 1.10,2013-02-18 12:41:00,
2013-02-18 05:56:00,22.1,13.0,30.10,NW,321,0.0,-999.0,67,-99.99,,,0.00,weatherlink.com 1.10,2013-02-18 12:56:00,
2013-02-18 06:11:00,21.9,12.0,30.11,NW,321,0.0,-999.0,67,-99.99,,,0.00,weatherlink.com 1.10,2013-02-18 13:11:00,
2013-02-18 06:26:00,21.4,12.0,30.13,NW,321,0.0,-999.0,68,-99.99,,,0.00,weatherlink.com 1.10,2013-02-18 13:26:00,
2013-02-18 06:41:00,21.4,12.0,30.15,NW,321,0.0,-999.0,68,-99.99,,,0.00,weatherlink.com 1.10,2013-02-18 13:41:00,
2013-02-18 06:56:00,21.1,12.0,30.16,NW,321,0.0,-999.0,68,-99.99,,,0.00,weatherlink.com 1.10,2013-02-18 13:56:00,
2013-02-18 07:12:00,21.1,12.0,30.16,NW,321,0.0,-999.0,68,-99.99,,,0.00,weatherlink.com 1.10,2013-02-18 14:12:00,
2013-02-18 07:27:00,21.0,12.0,30.17,NW,321,0.0,-999.0,68,-99.99,,,0.00,weatherlink.com 1.10,2013-02-18 14:27:00,
2013-02-18 07:42:00,22.2,13.0,30.17,NW,321,0.0,-999.0,67,-99.99,,,0.00,weatherlink.com 1.10,2013-02-18 14:42:00,
2013-02-18 07:57:00,25.4,14.0,30.17,NW,321,0.0,-999.0,62,-99.99,,,0.00,weatherlink.com 1.10,2013-02-18 14:57:00,
2013-02-18 08:12:00,28.2,14.0,30.16,NW,321,0.0,-999.0,56,-99.99,,,0.00,weatherlink.com 1.10,2013-02-18 15:12:00,
2013-02-18 08:27:00,31.8,14.0,30.14,NW,321,0.0,-999.0,49,-99.99,,,0.00,weatherlink.com 1.10,2013-02-18 15:27:00,
2013-02-18 08:42:00,33.8,13.0,30.14,NW,321,0.0,-999.0,43,-99.99,,,0.00,weatherlink.com 1.10,2013-02-18 15:42:00,
2013-02-18 08:57:00,33.8,12.0,30.13,NW,321,0.0,-999.0,41,-99.99,,,0.00,weatherlink.com 1.10,2013-02-18 15:57:00,
2013-02-18 09:12:00,33.7,12.0,30.13,NW,321,1.0,-999.0,41,-99.99,,,0.00,weatherlink.com 1.10,2013-02-18 16:12:00,
2013-02-18 09:27:00,34.6,12.0,30.12,NW,321,0.0,-999.0,40,-99.99,,,0.00,weatherlink.com 1.10,2013-02-18 16:27:00,
2013-02-18 09:42:00,35.8,12.0,30.11,West,279,2.0,-999.0,37,-99.99,,,0.00,weatherlink.com 1.10,2013-02-18 16:42:00,
2013-02-18 09:57:00,36.8,11.0,30.10,West,279,1.0,-999.0,34,-99.99,,,0.00,weatherlink.com 1.10,2013-02-18 16:57:00,
2013-02-18 10:12:00,38.2,10.0,30.10,WNW,289,1.0,-999.0,31,-99.99,,,0.00,weatherlink.com 1.10,2013-02-18 17:12:00,
2013-02-18 10:28:00,39.3,7.0,30.11,NW,319,1.0,-999.0,26,-99.99,,,0.00,weatherlink.com 1.10,2013-02-18 17:28:00,
2013-02-18 10:43:00,40.5,7.0,30.10,NE,48,0.0,-999.0,25,-99.99,,,0.00,weatherlink.com 1.10,2013-02-18 17:43:00,
2013-02-18 10:58:00,41.3,8.0,30.10,NNW,344,1.0,-999.0,25,-99.99,,,0.00,weatherlink.com 1.10,2013-02-18 17:58:00,
2013-02-18 11:13:00,40.5,7.0,30.10,SW,216,2.0,-999.0,25,-99.99,,,0.00,weatherlink.com 1.10,2013-02-18 18:13:00,
2013-02-18 11:28:00,40.2,7.0,30.11,West,264,3.0,-999.0,25,-99.99,,,0.00,weatherlink.com 1.10,2013-02-18 18:28:00,
2013-02-18 11:43:00,41.3,7.0,30.12,West,271,0.0,-999.0,24,-99.99,,,0.00,weatherlink.com 1.10,2013-02-18 18:43:00,
2013-02-18 11:58:00,42.5,7.0,30.11,NNW,340,3.0,-999.0,23,-99.99,,,0.00,weatherlink.com 1.10,2013-02-18 18:58:00,
2013-02-18 12:13:00,42.6,6.0,30.09,SW,215,0.0,-999.0,22,-99.99,,,0.00,weatherlink.com 1.10,2013-02-18 19:13:00,
2013-02-18 12:28:00,42.8,5.0,30.10,West,268,5.0,-999.0,21,-99.99,,,0.00,weatherlink.com 1.10,2013-02-18 19:28:00,
2013-02-18 12:43:00,43.1,5.0,30.10,NW,322,3.0,-999.0,21,-99.99,,,0.00,weatherlink.com 1.10,2013-02-18 19:43:00,
2013-02-18 12:58:00,42.9,3.0,30.09,SSW,197,0.0,-999.0,19,-99.99,,,0.00,weatherlink.com 1.10,2013-02-18 19:58:00,
2013-02-18 13:13:00,43.8,4.0,30.08,SW,230,0.0,-999.0,19,-99.99,,,0.00,weatherlink.com 1.10,2013-02-18 20:13:00,
2013-02-18 13:28:00,44.2,2.0,30.04,West,277,2.0,-999.0,17,-99.99,,,0.00,weatherlink.com 1.10,2013-02-18 20:28:00,
2013-02-18 13:43:00,44.1,3.0,30.03,North,355,2.0,-999.0,18,-99.99,,,0.00,weatherlink.com 1.10,2013-02-18 20:43:00,
2013-02-18 13:58:00,44.3,1.0,30.03,WSW,244,1.0,-999.0,16,-99.99,,,0.00,weatherlink.com 1.10,2013-02-18 20:58:00,
2013-02-18 14:14:00,44.6,1.0,30.02,WSW,238,4.0,-999.0,16,-99.99,,,0.00,weatherlink.com 1.10,2013-02-18 21:14:00,
2013-02-18 14:29:00,44.1,2.0,30.02,SSW,207,0.0,-999.0,17,-99.99,,,0.00,weatherlink.com 1.10,2013-02-18 21:29:00,
2013-02-18 14:44:00,45.2,1.0,30.02,SE,128,0.0,-999.0,16,-99.99,,,0.00,weatherlink.com 1.10,2013-02-18 21:44:00,
2013-02-18 14:59:00,45.2,0.0,30.01,East,82,0.0,-999.0,15,-99.99,,,0.00,weatherlink.com 1.10,2013-02-18 21:59:00,
2013-02-18 15:14:00,46.4,2.0,30.01,WSW,246,0.0,-999.0,16,-99.99,,,0.00,weatherlink.com 1.10,2013-02-18 22:14:00,
2013-02-18 15:29:00,46.2,1.0,30.00,West,259,0.0,-999.0,15,-99.99,,,0.00,weatherlink.com 1.10,2013-02-18 22:29:00,
2013-02-18 15:44:00,46.4,1.0,30.00,SW,234,0.0,-999.0,15,-99.99,,,0.00,weatherlink.com 1.10,2013-02-18 22:44:00,
2013-02-18 15:59:00,46.5,1.0,30.00,West,270,0.0,-999.0,15,-99.99,,,0.00,weatherlink.com 1.10,2013-02-18 22:59:00,
2013-02-18 16:14:00,46.4,1.0,29.98,West,281,2.0,-999.0,15,-99.99,,,0.00,weatherlink.com 1.10,2013-02-18 23:14:00,
2013-02-18 16:29:00,45.8,0.0,30.08,South,171,3.0,-999.0,15,-99.99,,,0.00,weatherlink.com 1.10,2013-02-18 23:29:00,
2013-02-18 16:44:00,47.3,0.0,30.08,South,171,0.0,-999.0,14,-99.99,,,0.00,weatherlink.com 1.10,2013-02-18 23:44:00,
2013-02-18 16:59:00,46.2,1.0,30.07,SW,223,1.0,-999.0,15,-99.99,,,0.00,weatherlink.com 1.10,2013-02-18 23:59:00,
2013-02-18 17:14:00,45.2,1.0,30.07,West,264,0.0,-999.0,16,-99.99,,,0.00,weatherlink.com 1.10,2013-02-19 00:14:00,
2013-02-18 17:30:00,43.8,4.0,30.09,West,264,0.0,-999.0,19,-99.99,,,0.00,weatherlink.com 1.10,2013-02-19 00:30:00,
2013-02-18 17:45:00,42.9,4.0,30.09,West,264,0.0,-999.0,20,-99.99,,,0.00,weatherlink.com 1.10,2013-02-19 00:45:00,
2013-02-18 18:00:00,41.5,5.0,30.09,West,264,0.0,-999.0,22,-99.99,,,0.00,weatherlink.com 1.10,2013-02-19 01:00:00,
2013-02-18 18:15:00,39.8,6.0,30.09,West,264,0.0,-999.0,24,-99.99,,,0.00,weatherlink.com 1.10,2013-02-19 01:15:00,
2013-02-18 18:30:00,37.8,6.0,30.11,West,264,0.0,-999.0,27,-99.99,,,0.00,weatherlink.com 1.10,2013-02-19 01:30:00,
2013-02-18 18:45:00,36.0,7.0,30.12,West,264,0.0,-999.0,30,-99.99,,,0.00,weatherlink.com 1.10,2013-02-19 01:45:00,
2013-02-18 19:00:00,34.7,8.0,30.13,West,264,0.0,-999.0,33,-99.99,,,0.00,weatherlink.com 1.10,2013-02-19 02:00:00,
2013-02-18 19:15:00,33.2,8.0,30.12,West,264,0.0,-999.0,35,-99.99,,,0.00,weatherlink.com 1.10,2013-02-19 02:15:00,
2013-02-18 19:30:00,32.2,9.0,30.12,West,264,0.0,-999.0,38,-99.99,,,0.00,weatherlink.com 1.10,2013-02-19 02:30:00,
2013-02-18 19:45:00,31.0,9.0,30.14,West,264,0.0,-999.0,40,-99.99,,,0.00,weatherlink.com 1.10,2013-02-19 02:45:00,
2013-02-18 20:00:00,30.4,9.0,30.12,West,264,0.0,-999.0,41,-99.99,,,0.00,weatherlink.com 1.10,2013-02-19 03:00:00,
2013-02-18 20:15:00,30.3,9.0,30.09,West,264,0.0,-999.0,41,-99.99,,,0.00,weatherlink.com 1.10,2013-02-19 03:15:00,
2013-02-18 20:30:00,30.3,9.0,30.09,West,264,0.0,-999.0,41,-99.99,,,0.00,weatherlink.com 1.10,2013-02-19 03:30:00,
2013-02-18 20:46:00,29.7,9.0,30.09,West,264,0.0,-999.0,42,-99.99,,,0.00,weatherlink.com 1.10,2013-02-19 03:46:00,
2013-02-18 21:01:00,29.1,9.0,30.11,West,264,0.0,-999.0,43,-99.99,,,0.00,weatherlink.com 1.10,2013-02-19 04:01:00,
2013-02-18 21:16:00,28.8,9.0,30.09,West,264,0.0,-999.0,43,-99.99,,,0.00,weatherlink.com 1.10,2013-02-19 04:16:00,
2013-02-18 21:31:00,28.7,9.0,30.09,West,264,0.0,-999.0,44,-99.99,,,0.00,weatherlink.com 1.10,2013-02-19 04:31:00,
2013-02-18 21:46:00,28.2,9.0,30.10,West,264,0.0,-999.0,44,-99.99,,,0.00,weatherlink.com 1.10,2013-02-19 04:46:00,
2013-02-18 22:01:00,27.8,9.0,30.10,West,264,0.0,-999.0,45,-99.99,,,0.00,weatherlink.com 1.10,2013-02-19 05:01:00,
2013-02-18 22:16:00,27.6,9.0,30.08,West,264,0.0,-999.0,46,-99.99,,,0.00,weatherlink.com 1.10,2013-02-19 05:16:00,
2013-02-18 22:31:00,27.3,9.0,30.08,West,264,0.0,-999.0,47,-99.99,,,0.00,weatherlink.com 1.10,2013-02-19 05:31:00,
2013-02-18 22:46:00,26.9,10.0,30.08,West,264,0.0,-999.0,49,-99.99,,,0.00,weatherlink.com 1.10,2013-02-19 05:46:00,
2013-02-18 23:01:00,26.7,11.0,30.08,West,264,0.0,-999.0,51,-99.99,,,0.00,weatherlink.com 1.10,2013-02-19 06:01:00,
2013-02-18 23:16:00,26.6,10.0,30.07,West,264,0.0,-999.0,50,-99.99,,,0.00,weatherlink.com 1.10,2013-02-19 06:16:00,
2013-02-18 23:31:00,26.6,10.0,30.07,West,264,0.0,-999.0,50,-99.99,,,0.00,weatherlink.com 1.10,2013-02-19 06:31:00,
2013-02-18 23:46:00,26.1,10.0,30.08,West,264,0.0,-999.0,51,-99.99,,,0.00,weatherlink.com 1.10,2013-02-19 06:46:00,